Year,Month,Day,Hour,Minute,Value (Times are PST for temperature in C)
2016,08,25,00,00,19.80
2016,08,25,00,01,19.80
2016,08,25,00,02,19.80
2016,08,25,00,03,19.80
2016,08,25,00,04,19.80
2016,08,25,00,05,19.80
2016,08,25,00,06,19.80
2016,08,25,00,07,19.70
2016,08,25,00,08,19.70
2016,08,25,00,09,19.70
2016,08,25,00,10,19.70
2016,08,25,00,11,19.70
2016,08,25,00,12,19.70
2016,08,25,00,13,19.70
2016,08,25,00,14,19.70
2016,08,25,00,15,19.70
2016,08,25,00,16,19.60
2016,08,25,00,17,19.60
2016,08,25,00,18,19.60
2016,08,25,00,19,19.60
2016,08,25,00,20,19.60
2016,08,25,00,21,19.60
2016,08,25,00,22,19.60
2016,08,25,00,23,19.60
2016,08,25,00,24,19.60
2016,08,25,00,25,19.50
2016,08,25,00,26,19.50
2016,08,25,00,27,19.50
2016,08,25,00,28,19.40
2016,08,25,00,29,19.40
2016,08,25,00,30,19.40
2016,08,25,00,31,19.40
2016,08,25,00,32,19.40
2016,08,25,00,33,19.40
2016,08,25,00,34,19.40
2016,08,25,00,35,19.30
2016,08,25,00,36,19.30
2016,08,25,00,37,19.30
2016,08,25,00,38,19.30
2016,08,25,00,39,19.30
2016,08,25,00,40,19.30
2016,08,25,00,41,19.20
2016,08,25,00,42,19.20
2016,08,25,00,43,19.20
2016,08,25,00,44,19.10
2016,08,25,00,45,19.10
2016,08,25,00,46,19.10
2016,08,25,00,47,19.00
2016,08,25,00,48,19.00
2016,08,25,00,49,19.00
2016,08,25,00,50,19.00
2016,08,25,00,51,18.90
2016,08,25,00,52,18.90
2016,08,25,00,53,18.90
2016,08,25,00,54,18.90
2016,08,25,00,55,18.90
2016,08,25,00,56,18.80
2016,08,25,00,57,18.80
2016,08,25,00,58,18.80
2016,08,25,00,59,18.80
2016,08,25,01,00,18.80
2016,08,25,01,01,18.80
2016,08,25,01,02,18.80
2016,08,25,01,03,18.80
2016,08,25,01,04,18.80
2016,08,25,01,05,18.80
2016,08,25,01,06,18.70
2016,08,25,01,07,18.70
2016,08,25,01,08,18.70
2016,08,25,01,09,18.70
2016,08,25,01,10,18.70
2016,08,25,01,11,18.60
2016,08,25,01,12,18.60
2016,08,25,01,13,18.60
2016,08,25,01,14,18.60
2016,08,25,01,15,18.60
2016,08,25,01,16,18.60
2016,08,25,01,17,18.60
2016,08,25,01,18,18.50
2016,08,25,01,19,18.50
2016,08,25,01,20,18.40
2016,08,25,01,21,18.40
2016,08,25,01,22,18.40
2016,08,25,01,23,18.40
2016,08,25,01,24,18.30
2016,08,25,01,25,18.30
2016,08,25,01,26,18.30
2016,08,25,01,27,18.30
2016,08,25,01,28,18.30
2016,08,25,01,29,18.20
2016,08,25,01,30,18.20
2016,08,25,01,31,18.20
2016,08,25,01,32,18.10
2016,08,25,01,33,18.10
2016,08,25,01,34,18.10
2016,08,25,01,35,18.10
2016,08,25,01,36,18.00
2016,08,25,01,37,18.00
2016,08,25,01,38,18.00
2016,08,25,01,39,18.00
2016,08,25,01,40,17.90
2016,08,25,01,41,17.90
2016,08,25,01,42,17.90
2016,08,25,01,43,17.90
2016,08,25,01,44,17.90
2016,08,25,01,45,17.80
2016,08,25,01,46,17.80
2016,08,25,01,47,17.80
2016,08,25,01,48,17.80
2016,08,25,01,49,17.80
2016,08,25,01,50,17.70
2016,08,25,01,51,17.70
2016,08,25,01,52,17.70
2016,08,25,01,53,17.70
2016,08,25,01,54,17.70
2016,08,25,01,55,17.70
2016,08,25,01,56,17.70
2016,08,25,01,57,17.70
2016,08,25,01,58,17.70
2016,08,25,01,59,17.70
2016,08,25,02,00,17.70
2016,08,25,02,01,17.70
2016,08,25,02,02,17.60
2016,08,25,02,03,17.60
2016,08,25,02,04,17.60
2016,08,25,02,05,17.60
2016,08,25,02,06,17.60
2016,08,25,02,07,17.60
2016,08,25,02,08,17.60
2016,08,25,02,09,17.60
2016,08,25,02,10,17.60
2016,08,25,02,11,17.60
2016,08,25,02,12,17.60
2016,08,25,02,13,17.60
2016,08,25,02,14,17.60
2016,08,25,02,15,17.60
2016,08,25,02,16,17.50
2016,08,25,02,17,17.50
2016,08,25,02,18,17.50
2016,08,25,02,19,17.50
2016,08,25,02,20,17.50
2016,08,25,02,21,17.50
2016,08,25,02,22,17.50
2016,08,25,02,23,17.50
2016,08,25,02,24,17.50
2016,08,25,02,25,17.50
2016,08,25,02,26,17.60
2016,08,25,02,27,17.60
2016,08,25,02,28,17.60
2016,08,25,02,29,17.60
2016,08,25,02,30,17.70
2016,08,25,02,31,17.70
2016,08,25,02,32,17.80
2016,08,25,02,33,17.80
2016,08,25,02,34,17.80
2016,08,25,02,35,17.90
2016,08,25,02,36,17.90
2016,08,25,02,37,17.90
2016,08,25,02,38,17.90
2016,08,25,02,39,17.90
2016,08,25,02,40,17.90
2016,08,25,02,41,17.90
2016,08,25,02,42,17.90
2016,08,25,02,43,17.90
2016,08,25,02,44,17.90
2016,08,25,02,45,17.90
2016,08,25,02,46,17.90
2016,08,25,02,47,17.90
2016,08,25,02,48,18.00
2016,08,25,02,49,18.00
2016,08,25,02,50,18.10
2016,08,25,02,51,18.20
2016,08,25,02,52,18.30
2016,08,25,02,53,18.40
2016,08,25,02,54,18.60
2016,08,25,02,55,18.70
2016,08,25,02,56,18.80
2016,08,25,02,57,18.80
2016,08,25,02,58,18.90
2016,08,25,02,59,18.90
2016,08,25,03,00,18.90
2016,08,25,03,01,18.90
2016,08,25,03,02,18.90
2016,08,25,03,03,18.90
2016,08,25,03,04,18.90
2016,08,25,03,05,18.90
2016,08,25,03,06,18.90
2016,08,25,03,07,18.80
2016,08,25,03,08,18.80
2016,08,25,03,09,18.80
2016,08,25,03,10,18.80
2016,08,25,03,11,18.80
2016,08,25,03,12,18.80
2016,08,25,03,13,18.80
2016,08,25,03,14,18.80
2016,08,25,03,15,18.80
2016,08,25,03,16,18.80
2016,08,25,03,17,18.80
2016,08,25,03,18,18.70
2016,08,25,03,19,18.70
2016,08,25,03,20,18.70
2016,08,25,03,21,18.70
2016,08,25,03,22,18.70
2016,08,25,03,23,18.70
2016,08,25,03,24,18.70
2016,08,25,03,25,18.70
2016,08,25,03,26,18.70
2016,08,25,03,27,18.60
2016,08,25,03,28,18.50
2016,08,25,03,29,18.50
2016,08,25,03,30,18.40
2016,08,25,03,31,18.40
2016,08,25,03,32,18.30
2016,08,25,03,33,18.20
2016,08,25,03,34,18.10
2016,08,25,03,35,18.10
2016,08,25,03,36,18.00
2016,08,25,03,37,18.00
2016,08,25,03,38,17.90
2016,08,25,03,39,17.90
2016,08,25,03,40,17.80
2016,08,25,03,41,17.80
2016,08,25,03,42,17.80
2016,08,25,03,43,17.80
2016,08,25,03,44,17.70
2016,08,25,03,45,17.70
2016,08,25,03,46,17.70
2016,08,25,03,47,17.70
2016,08,25,03,48,17.60
2016,08,25,03,49,17.60
2016,08,25,03,50,17.60
2016,08,25,03,51,17.60
2016,08,25,03,52,17.60
2016,08,25,03,53,17.60
2016,08,25,03,54,17.60
2016,08,25,03,55,17.60
2016,08,25,03,56,17.60
2016,08,25,03,57,17.60
2016,08,25,03,58,17.60
2016,08,25,03,59,17.60
2016,08,25,04,00,17.60
2016,08,25,04,01,17.60
2016,08,25,04,02,17.50
2016,08,25,04,03,17.50
2016,08,25,04,04,17.50
2016,08,25,04,05,17.50
2016,08,25,04,06,17.50
2016,08,25,04,07,17.50
2016,08,25,04,08,17.40
2016,08,25,04,09,17.40
2016,08,25,04,10,17.40
2016,08,25,04,11,17.40
2016,08,25,04,12,17.40
2016,08,25,04,13,17.40
2016,08,25,04,14,17.40
2016,08,25,04,15,17.40
2016,08,25,04,16,17.40
2016,08,25,04,17,17.40
2016,08,25,04,18,17.40
2016,08,25,04,19,17.40
2016,08,25,04,20,17.40
2016,08,25,04,21,17.40
2016,08,25,04,22,17.40
2016,08,25,04,23,17.40
2016,08,25,04,24,17.40
2016,08,25,04,25,17.40
2016,08,25,04,26,17.40
2016,08,25,04,27,17.40
2016,08,25,04,28,17.40
2016,08,25,04,29,17.40
2016,08,25,04,30,17.40
2016,08,25,04,31,17.40
2016,08,25,04,32,17.40
2016,08,25,04,33,17.40
2016,08,25,04,34,17.30
2016,08,25,04,35,17.30
2016,08,25,04,36,17.30
2016,08,25,04,37,17.30
2016,08,25,04,38,17.30
2016,08,25,04,39,17.30
2016,08,25,04,40,17.30
2016,08,25,04,41,17.20
2016,08,25,04,42,17.20
2016,08,25,04,43,17.20
2016,08,25,04,44,17.20
2016,08,25,04,45,17.20
2016,08,25,04,46,17.20
2016,08,25,04,47,17.20
2016,08,25,04,48,17.20
2016,08,25,04,49,17.20
2016,08,25,04,50,17.20
2016,08,25,04,51,17.20
2016,08,25,04,52,17.20
2016,08,25,04,53,17.20
2016,08,25,04,54,17.10
2016,08,25,04,55,17.10
2016,08,25,04,56,17.10
2016,08,25,04,57,17.00
2016,08,25,04,58,17.00
2016,08,25,04,59,17.00
2016,08,25,05,00,16.90
2016,08,25,05,01,16.90
2016,08,25,05,02,16.90
2016,08,25,05,03,16.90
2016,08,25,05,04,16.80
2016,08,25,05,05,16.80
2016,08,25,05,06,16.80
2016,08,25,05,07,16.80
2016,08,25,05,08,16.70
2016,08,25,05,09,16.70
2016,08,25,05,10,16.70
2016,08,25,05,11,16.70
2016,08,25,05,12,16.70
2016,08,25,05,13,16.70
2016,08,25,05,14,16.70
2016,08,25,05,15,16.70
2016,08,25,05,16,16.60
2016,08,25,05,17,16.60
2016,08,25,05,18,16.60
2016,08,25,05,19,16.60
2016,08,25,05,20,16.60
2016,08,25,05,21,16.60
2016,08,25,05,22,16.60
2016,08,25,05,23,16.60
2016,08,25,05,24,16.60
2016,08,25,05,25,16.60
2016,08,25,05,26,16.60
2016,08,25,05,27,16.60
2016,08,25,05,28,16.50
2016,08,25,05,29,16.50
2016,08,25,05,30,16.50
2016,08,25,05,31,16.50
2016,08,25,05,32,16.40
2016,08,25,05,33,16.40
2016,08,25,05,34,16.40
2016,08,25,05,35,16.40
2016,08,25,05,36,16.40
2016,08,25,05,37,16.40
2016,08,25,05,38,16.30
2016,08,25,05,39,16.30
2016,08,25,05,40,16.30
2016,08,25,05,41,16.30
2016,08,25,05,42,16.30
2016,08,25,05,43,16.30
2016,08,25,05,44,16.30
2016,08,25,05,45,16.30
2016,08,25,05,46,16.30
2016,08,25,05,47,16.30
2016,08,25,05,48,16.30
2016,08,25,05,49,16.30
2016,08,25,05,50,16.30
2016,08,25,05,51,16.30
2016,08,25,05,52,16.30
2016,08,25,05,53,16.30
2016,08,25,05,54,16.30
2016,08,25,05,55,16.30
2016,08,25,05,56,16.30
2016,08,25,05,57,16.30
2016,08,25,05,58,16.30
2016,08,25,05,59,16.30
2016,08,25,06,00,16.30
2016,08,25,06,01,16.30
2016,08,25,06,02,16.20
2016,08,25,06,03,16.20
2016,08,25,06,04,16.20
2016,08,25,06,05,16.10
2016,08,25,06,06,16.10
2016,08,25,06,07,16.10
2016,08,25,06,08,16.10
2016,08,25,06,09,16.10
2016,08,25,06,10,16.10
2016,08,25,06,11,16.10
2016,08,25,06,12,16.10
2016,08,25,06,13,16.10
2016,08,25,06,14,16.20
2016,08,25,06,15,16.20
2016,08,25,06,16,16.20
2016,08,25,06,17,16.20
2016,08,25,06,18,16.20
2016,08,25,06,19,16.20
2016,08,25,06,20,16.20
2016,08,25,06,21,16.20
2016,08,25,06,22,16.20
2016,08,25,06,23,16.20
2016,08,25,06,24,16.20
2016,08,25,06,25,16.20
2016,08,25,06,26,16.20
2016,08,25,06,27,16.20
2016,08,25,06,28,16.20
2016,08,25,06,29,16.20
2016,08,25,06,30,16.10
2016,08,25,06,31,16.10
2016,08,25,06,32,16.10
2016,08,25,06,33,16.10
2016,08,25,06,34,16.10
2016,08,25,06,35,16.10
2016,08,25,06,36,16.10
2016,08,25,06,37,16.10
2016,08,25,06,38,16.10
2016,08,25,06,39,16.10
2016,08,25,06,40,16.10
2016,08,25,06,41,16.10
2016,08,25,06,42,16.10
2016,08,25,06,43,16.10
2016,08,25,06,44,16.10
2016,08,25,06,45,16.10
2016,08,25,06,46,16.10
2016,08,25,06,47,16.20
2016,08,25,06,48,16.20
2016,08,25,06,49,16.20
2016,08,25,06,50,16.20
2016,08,25,06,51,16.20
2016,08,25,06,52,16.20
2016,08,25,06,53,16.20
2016,08,25,06,54,16.20
2016,08,25,06,55,16.20
2016,08,25,06,56,16.30
2016,08,25,06,57,16.30
2016,08,25,06,58,16.30
2016,08,25,06,59,16.30
2016,08,25,07,00,16.30
2016,08,25,07,01,16.30
2016,08,25,07,02,16.40
2016,08,25,07,03,16.40
2016,08,25,07,04,16.40
2016,08,25,07,05,16.50
2016,08,25,07,06,16.50
2016,08,25,07,07,16.60
2016,08,25,07,08,16.60
2016,08,25,07,09,16.70
2016,08,25,07,10,16.70
2016,08,25,07,11,16.70
2016,08,25,07,12,16.80
2016,08,25,07,13,16.80
2016,08,25,07,14,16.90
2016,08,25,07,15,17.00
2016,08,25,07,16,17.00
2016,08,25,07,17,17.10
2016,08,25,07,18,17.20
2016,08,25,07,19,17.30
2016,08,25,07,20,17.40
2016,08,25,07,21,17.50
2016,08,25,07,22,17.50
2016,08,25,07,23,17.60
2016,08,25,07,24,17.60
2016,08,25,07,25,17.60
2016,08,25,07,26,17.70
2016,08,25,07,27,17.80
2016,08,25,07,28,17.90
2016,08,25,07,29,17.90
2016,08,25,07,30,18.00
2016,08,25,07,31,18.10
2016,08,25,07,32,18.20
2016,08,25,07,33,18.30
2016,08,25,07,34,18.30
2016,08,25,07,35,18.30
2016,08,25,07,36,18.40
2016,08,25,07,37,18.40
2016,08,25,07,38,18.40
2016,08,25,07,39,18.40
2016,08,25,07,40,18.40
2016,08,25,07,41,18.50
2016,08,25,07,42,18.50
2016,08,25,07,43,18.50
2016,08,25,07,44,18.60
2016,08,25,07,45,18.60
2016,08,25,07,46,18.70
2016,08,25,07,47,18.80
2016,08,25,07,48,18.90
2016,08,25,07,49,19.00
2016,08,25,07,50,19.00
2016,08,25,07,51,19.10
2016,08,25,07,52,19.20
2016,08,25,07,53,19.30
2016,08,25,07,54,19.40
2016,08,25,07,55,19.50
2016,08,25,07,56,19.50
2016,08,25,07,57,19.60
2016,08,25,07,58,19.60
2016,08,25,07,59,19.70
2016,08,25,08,00,19.70
2016,08,25,08,01,19.80
2016,08,25,08,02,19.80
2016,08,25,08,03,19.80
2016,08,25,08,04,19.90
2016,08,25,08,05,20.00
2016,08,25,08,06,20.00
2016,08,25,08,07,20.00
2016,08,25,08,08,20.10
2016,08,25,08,09,20.10
2016,08,25,08,10,20.20
2016,08,25,08,11,20.30
2016,08,25,08,12,20.40
2016,08,25,08,13,20.60
2016,08,25,08,14,20.70
2016,08,25,08,15,20.90
2016,08,25,08,16,21.00
2016,08,25,08,17,21.20
2016,08,25,08,18,21.30
2016,08,25,08,19,21.40
2016,08,25,08,20,21.50
2016,08,25,08,21,21.50
2016,08,25,08,22,21.60
2016,08,25,08,23,21.60
2016,08,25,08,24,21.70
2016,08,25,08,25,21.70
2016,08,25,08,26,21.80
2016,08,25,08,27,21.90
2016,08,25,08,28,21.90
2016,08,25,08,29,22.00
2016,08,25,08,30,22.10
2016,08,25,08,31,22.20
2016,08,25,08,32,22.30
2016,08,25,08,33,22.40
2016,08,25,08,34,22.40
2016,08,25,08,35,22.50
2016,08,25,08,36,22.50
2016,08,25,08,37,22.60
2016,08,25,08,38,22.60
2016,08,25,08,39,22.60
2016,08,25,08,40,22.60
2016,08,25,08,41,22.60
2016,08,25,08,42,22.60
2016,08,25,08,43,22.60
2016,08,25,08,44,22.70
2016,08,25,08,45,22.70
2016,08,25,08,46,22.80
2016,08,25,08,47,22.90
2016,08,25,08,48,23.00
2016,08,25,08,49,23.10
2016,08,25,08,50,23.10
2016,08,25,08,51,23.20
2016,08,25,08,52,23.20
2016,08,25,08,53,23.20
2016,08,25,08,54,23.20
2016,08,25,08,55,23.20
2016,08,25,08,56,23.20
2016,08,25,08,57,23.20
2016,08,25,08,58,23.20
2016,08,25,08,59,23.20
2016,08,25,09,00,23.30
2016,08,25,09,01,23.30
2016,08,25,09,02,23.40
2016,08,25,09,03,23.40
2016,08,25,09,04,23.50
2016,08,25,09,05,23.60
2016,08,25,09,06,23.60
2016,08,25,09,07,23.70
2016,08,25,09,08,23.70
2016,08,25,09,09,23.70
2016,08,25,09,10,23.70
2016,08,25,09,11,23.80
2016,08,25,09,12,23.80
2016,08,25,09,13,23.90
2016,08,25,09,14,23.90
2016,08,25,09,15,24.00
2016,08,25,09,16,24.00
2016,08,25,09,17,24.10
2016,08,25,09,18,24.20
2016,08,25,09,19,24.30
2016,08,25,09,20,24.30
2016,08,25,09,21,24.30
2016,08,25,09,22,24.30
2016,08,25,09,23,24.30
2016,08,25,09,24,24.30
2016,08,25,09,25,24.30
2016,08,25,09,26,24.30
2016,08,25,09,27,24.30
2016,08,25,09,28,24.30
2016,08,25,09,29,24.30
2016,08,25,09,30,24.30
2016,08,25,09,31,24.40
2016,08,25,09,32,24.30
2016,08,25,09,33,24.30
2016,08,25,09,34,24.30
2016,08,25,09,35,24.30
2016,08,25,09,36,24.30
2016,08,25,09,37,24.30
2016,08,25,09,38,24.30
2016,08,25,09,39,24.40
2016,08,25,09,40,24.50
2016,08,25,09,41,24.50
2016,08,25,09,42,24.60
2016,08,25,09,43,24.60
2016,08,25,09,44,24.70
2016,08,25,09,45,24.70
2016,08,25,09,46,24.70
2016,08,25,09,47,24.80
2016,08,25,09,48,24.80
2016,08,25,09,49,24.80
2016,08,25,09,50,24.80
2016,08,25,09,51,24.90
2016,08,25,09,52,24.90
2016,08,25,09,53,25.00
2016,08,25,09,54,25.10
2016,08,25,09,55,25.10
2016,08,25,09,56,25.20
2016,08,25,09,57,25.20
2016,08,25,09,58,25.20
2016,08,25,09,59,25.10
2016,08,25,10,00,25.10
2016,08,25,10,01,25.10
2016,08,25,10,02,25.10
2016,08,25,10,03,25.20
2016,08,25,10,04,25.20
2016,08,25,10,05,25.20
2016,08,25,10,06,25.10
2016,08,25,10,07,25.10
2016,08,25,10,08,25.10
2016,08,25,10,09,25.00
2016,08,25,10,10,25.00
2016,08,25,10,11,24.90
2016,08,25,10,12,24.90
2016,08,25,10,13,24.90
2016,08,25,10,14,24.90
2016,08,25,10,15,24.80
2016,08,25,10,16,24.80
2016,08,25,10,17,24.80
2016,08,25,10,18,24.90
2016,08,25,10,19,24.90
2016,08,25,10,20,25.00
2016,08,25,10,21,25.00
2016,08,25,10,22,25.10
2016,08,25,10,23,25.10
2016,08,25,10,24,25.20
2016,08,25,10,25,25.20
2016,08,25,10,26,25.30
2016,08,25,10,27,25.30
2016,08,25,10,28,25.40
2016,08,25,10,29,25.40
2016,08,25,10,30,25.40
2016,08,25,10,31,25.40
2016,08,25,10,32,25.40
2016,08,25,10,33,25.50
2016,08,25,10,34,25.50
2016,08,25,10,35,25.60
2016,08,25,10,36,25.60
2016,08,25,10,37,25.60
2016,08,25,10,38,25.60
2016,08,25,10,39,25.60
2016,08,25,10,40,25.70
2016,08,25,10,41,25.70
2016,08,25,10,42,25.70
2016,08,25,10,43,25.70
2016,08,25,10,44,25.80
2016,08,25,10,45,25.80
2016,08,25,10,46,25.80
2016,08,25,10,47,25.80
2016,08,25,10,48,25.80
2016,08,25,10,49,25.70
2016,08,25,10,50,25.70
2016,08,25,10,51,25.70
2016,08,25,10,52,25.80
2016,08,25,10,53,25.90
2016,08,25,10,54,25.90
2016,08,25,10,55,26.00
2016,08,25,10,56,26.10
2016,08,25,10,57,26.10
2016,08,25,10,58,26.10
2016,08,25,10,59,26.10
2016,08,25,11,00,26.10
2016,08,25,11,01,26.00
2016,08,25,11,02,25.90
2016,08,25,11,03,25.90
2016,08,25,11,04,25.90
2016,08,25,11,05,26.00
2016,08,25,11,06,26.00
2016,08,25,11,07,25.90
2016,08,25,11,08,25.90
2016,08,25,11,09,25.90
2016,08,25,11,10,25.90
2016,08,25,11,11,25.90
2016,08,25,11,12,26.00
2016,08,25,11,13,26.00
2016,08,25,11,14,26.10
2016,08,25,11,15,26.20
2016,08,25,11,16,26.20
2016,08,25,11,17,26.30
2016,08,25,11,18,26.40
2016,08,25,11,19,26.50
2016,08,25,11,20,26.60
2016,08,25,11,21,26.60
2016,08,25,11,22,26.70
2016,08,25,11,23,26.80
2016,08,25,11,24,26.80
2016,08,25,11,25,26.80
2016,08,25,11,26,26.90
2016,08,25,11,27,26.90
2016,08,25,11,28,26.90
2016,08,25,11,29,26.80
2016,08,25,11,30,26.90
2016,08,25,11,31,26.90
2016,08,25,11,32,27.00
2016,08,25,11,33,27.00
2016,08,25,11,34,27.10
2016,08,25,11,35,27.10
2016,08,25,11,36,27.20
2016,08,25,11,37,27.30
2016,08,25,11,38,27.40
2016,08,25,11,39,27.40
2016,08,25,11,40,27.40
2016,08,25,11,41,27.30
2016,08,25,11,42,27.20
2016,08,25,11,43,26.80
2016,08,25,11,44,26.20
2016,08,25,11,45,25.80
2016,08,25,11,46,25.40
2016,08,25,11,47,25.00
2016,08,25,11,48,24.70
2016,08,25,11,49,24.60
2016,08,25,11,50,24.40
2016,08,25,11,51,24.30
2016,08,25,11,52,24.20
2016,08,25,11,53,24.20
2016,08,25,11,54,24.20
2016,08,25,11,55,24.20
2016,08,25,11,56,24.20
2016,08,25,11,57,24.20
2016,08,25,11,58,24.20
2016,08,25,11,59,24.30
2016,08,25,12,00,24.20
2016,08,25,12,01,24.20
2016,08,25,12,02,24.00
2016,08,25,12,03,23.90
2016,08,25,12,04,23.80
2016,08,25,12,05,23.90
2016,08,25,12,06,23.90
2016,08,25,12,07,24.00
2016,08,25,12,08,24.10
2016,08,25,12,09,24.10
2016,08,25,12,10,24.20
2016,08,25,12,11,24.20
2016,08,25,12,12,24.20
2016,08,25,12,13,24.20
2016,08,25,12,14,24.10
2016,08,25,12,15,24.10
2016,08,25,12,16,24.10
2016,08,25,12,17,24.10
2016,08,25,12,18,24.20
2016,08,25,12,19,24.10
2016,08,25,12,20,24.10
2016,08,25,12,21,24.10
2016,08,25,12,22,24.20
2016,08,25,12,23,24.20
2016,08,25,12,24,24.20
2016,08,25,12,25,24.20
2016,08,25,12,26,24.20
2016,08,25,12,27,24.20
2016,08,25,12,28,24.30
2016,08,25,12,29,24.40
2016,08,25,12,30,24.50
2016,08,25,12,31,24.60
2016,08,25,12,32,24.70
2016,08,25,12,33,24.90
2016,08,25,12,34,25.10
2016,08,25,12,35,25.20
2016,08,25,12,36,25.40
2016,08,25,12,37,25.70
2016,08,25,12,38,26.00
2016,08,25,12,39,26.20
2016,08,25,12,40,26.50
2016,08,25,12,41,26.80
2016,08,25,12,42,27.00
2016,08,25,12,43,27.20
2016,08,25,12,44,27.30
2016,08,25,12,45,27.40
2016,08,25,12,46,27.50
2016,08,25,12,47,27.60
2016,08,25,12,48,27.60
2016,08,25,12,49,27.70
2016,08,25,12,50,27.70
2016,08,25,12,51,27.70
2016,08,25,12,52,27.70
2016,08,25,12,53,27.80
2016,08,25,12,54,27.80
2016,08,25,12,55,27.90
2016,08,25,12,56,27.90
2016,08,25,12,57,28.00
2016,08,25,12,58,28.10
2016,08,25,12,59,28.10
2016,08,25,13,00,28.20
2016,08,25,13,01,28.40
2016,08,25,13,02,28.50
2016,08,25,13,03,28.60
2016,08,25,13,04,28.70
2016,08,25,13,05,28.70
2016,08,25,13,06,28.70
2016,08,25,13,07,28.80
2016,08,25,13,08,28.80
2016,08,25,13,09,28.80
2016,08,25,13,10,28.80
2016,08,25,13,11,28.70
2016,08,25,13,12,28.60
2016,08,25,13,13,28.40
2016,08,25,13,14,28.20
2016,08,25,13,15,28.10
2016,08,25,13,16,28.00
2016,08,25,13,17,28.00
2016,08,25,13,18,28.00
2016,08,25,13,19,28.00
2016,08,25,13,20,28.10
2016,08,25,13,21,28.10
2016,08,25,13,22,28.20
2016,08,25,13,23,28.20
2016,08,25,13,24,28.20
2016,08,25,13,25,28.10
2016,08,25,13,26,28.20
2016,08,25,13,27,28.20
2016,08,25,13,28,28.20
2016,08,25,13,29,28.30
2016,08,25,13,30,28.20
2016,08,25,13,31,28.20
2016,08,25,13,32,28.30
2016,08,25,13,33,28.40
2016,08,25,13,34,28.40
2016,08,25,13,35,28.40
2016,08,25,13,36,28.50
2016,08,25,13,37,28.50
2016,08,25,13,38,28.50
2016,08,25,13,39,28.60
2016,08,25,13,40,28.60
2016,08,25,13,41,28.60
2016,08,25,13,42,28.50
2016,08,25,13,43,28.40
2016,08,25,13,44,28.40
2016,08,25,13,45,28.50
2016,08,25,13,46,28.70
2016,08,25,13,47,28.80
2016,08,25,13,48,28.90
2016,08,25,13,49,29.00
2016,08,25,13,50,29.10
2016,08,25,13,51,29.10
2016,08,25,13,52,29.00
2016,08,25,13,53,28.90
2016,08,25,13,54,28.90
2016,08,25,13,55,28.90
2016,08,25,13,56,28.90
2016,08,25,13,57,28.90
2016,08,25,13,58,29.00
2016,08,25,13,59,29.10
2016,08,25,14,00,29.20
2016,08,25,14,01,29.20
2016,08,25,14,02,29.20
2016,08,25,14,03,29.30
2016,08,25,14,04,29.30
2016,08,25,14,05,29.20
2016,08,25,14,06,29.20
2016,08,25,14,07,29.20
2016,08,25,14,08,29.20
2016,08,25,14,09,29.20
2016,08,25,14,10,29.20
2016,08,25,14,11,29.20
2016,08,25,14,12,29.20
2016,08,25,14,13,29.30
2016,08,25,14,14,29.30
2016,08,25,14,15,29.30
2016,08,25,14,16,29.40
2016,08,25,14,17,29.40
2016,08,25,14,18,29.40
2016,08,25,14,19,29.40
2016,08,25,14,20,29.50
2016,08,25,14,21,29.60
2016,08,25,14,22,29.70
2016,08,25,14,23,29.70
2016,08,25,14,24,29.80
2016,08,25,14,25,29.80
2016,08,25,14,26,29.80
2016,08,25,14,27,29.90
2016,08,25,14,28,29.90
2016,08,25,14,29,29.90
2016,08,25,14,30,29.90
2016,08,25,14,31,29.90
2016,08,25,14,32,29.90
2016,08,25,14,33,29.80
2016,08,25,14,34,29.70
2016,08,25,14,35,29.60
2016,08,25,14,36,29.60
2016,08,25,14,37,29.50
2016,08,25,14,38,29.50
2016,08,25,14,39,29.40
2016,08,25,14,40,29.40
2016,08,25,14,41,29.40
2016,08,25,14,42,29.40
2016,08,25,14,43,29.40
2016,08,25,14,44,29.50
2016,08,25,14,45,29.50
2016,08,25,14,46,29.60
2016,08,25,14,47,29.60
2016,08,25,14,48,29.60
2016,08,25,14,49,29.60
2016,08,25,14,50,29.70
2016,08,25,14,51,29.70
2016,08,25,14,52,29.70
2016,08,25,14,53,29.80
2016,08,25,14,54,29.60
2016,08,25,14,55,29.50
2016,08,25,14,56,29.40
2016,08,25,14,57,29.40
2016,08,25,14,58,29.40
2016,08,25,14,59,29.40
2016,08,25,15,00,29.50
2016,08,25,15,01,29.60
2016,08,25,15,02,29.60
2016,08,25,15,03,29.60
2016,08,25,15,04,29.60
2016,08,25,15,05,29.70
2016,08,25,15,06,29.80
2016,08,25,15,07,29.80
2016,08,25,15,08,30.00
2016,08,25,15,09,30.10
2016,08,25,15,10,30.20
2016,08,25,15,11,30.30
2016,08,25,15,12,30.30
2016,08,25,15,13,30.30
2016,08,25,15,14,30.40
2016,08,25,15,15,30.30
2016,08,25,15,16,30.30
2016,08,25,15,17,30.30
2016,08,25,15,18,30.30
2016,08,25,15,19,30.30
2016,08,25,15,20,30.30
2016,08,25,15,21,30.30
2016,08,25,15,22,30.30
2016,08,25,15,23,30.30
2016,08,25,15,24,30.20
2016,08,25,15,25,30.20
2016,08,25,15,26,30.20
2016,08,25,15,27,30.20
2016,08,25,15,28,30.20
2016,08,25,15,29,30.10
2016,08,25,15,30,30.10
2016,08,25,15,31,30.20
2016,08,25,15,32,30.20
2016,08,25,15,33,30.30
2016,08,25,15,34,30.30
2016,08,25,15,35,30.30
2016,08,25,15,36,30.30
2016,08,25,15,37,30.30
2016,08,25,15,38,30.30
2016,08,25,15,39,30.30
2016,08,25,15,40,30.20
2016,08,25,15,41,30.20
2016,08,25,15,42,30.20
2016,08,25,15,43,30.20
2016,08,25,15,44,30.30
2016,08,25,15,45,30.40
2016,08,25,15,46,30.50
2016,08,25,15,47,30.60
2016,08,25,15,48,30.60
2016,08,25,15,49,30.60
2016,08,25,15,50,30.70
2016,08,25,15,51,30.70
2016,08,25,15,52,30.80
2016,08,25,15,53,30.80
2016,08,25,15,54,30.80
2016,08,25,15,55,30.80
2016,08,25,15,56,30.80
2016,08,25,15,57,30.90
2016,08,25,15,58,30.90
2016,08,25,15,59,30.90
2016,08,25,16,00,30.90
2016,08,25,16,01,30.90
2016,08,25,16,02,30.90
2016,08,25,16,03,30.90
2016,08,25,16,04,30.90
2016,08,25,16,05,31.00
2016,08,25,16,06,31.00
2016,08,25,16,07,31.00
2016,08,25,16,08,31.00
2016,08,25,16,09,31.00
2016,08,25,16,10,30.90
2016,08,25,16,11,30.90
2016,08,25,16,12,30.90
2016,08,25,16,13,30.90
2016,08,25,16,14,31.00
2016,08,25,16,15,31.00
2016,08,25,16,16,31.10
2016,08,25,16,17,30.90
2016,08,25,16,18,30.70
2016,08,25,16,19,30.50
2016,08,25,16,20,30.30
2016,08,25,16,21,30.10
2016,08,25,16,22,29.90
2016,08,25,16,23,29.70
2016,08,25,16,24,29.60
2016,08,25,16,25,29.50
2016,08,25,16,26,29.40
2016,08,25,16,27,29.40
2016,08,25,16,28,29.40
2016,08,25,16,29,29.40
2016,08,25,16,30,29.30
2016,08,25,16,31,29.20
2016,08,25,16,32,29.20
2016,08,25,16,33,29.00
2016,08,25,16,34,28.90
2016,08,25,16,35,28.90
2016,08,25,16,36,28.90
2016,08,25,16,37,28.80
2016,08,25,16,38,28.80
2016,08,25,16,39,28.90
2016,08,25,16,40,28.90
2016,08,25,16,41,28.80
2016,08,25,16,42,28.80
2016,08,25,16,43,28.70
2016,08,25,16,44,28.60
2016,08,25,16,45,28.50
2016,08,25,16,46,28.50
2016,08,25,16,47,28.40
2016,08,25,16,48,28.50
2016,08,25,16,49,28.50
2016,08,25,16,50,28.60
2016,08,25,16,51,28.60
2016,08,25,16,52,28.70
2016,08,25,16,53,28.80
2016,08,25,16,54,28.90
2016,08,25,16,55,29.10
2016,08,25,16,56,29.30
2016,08,25,16,57,29.40
2016,08,25,16,58,29.60
2016,08,25,16,59,29.70
2016,08,25,17,00,29.80
2016,08,25,17,01,29.90
2016,08,25,17,02,29.90
2016,08,25,17,03,30.00
2016,08,25,17,04,30.00
2016,08,25,17,05,30.00
2016,08,25,17,06,30.00
2016,08,25,17,07,30.10
2016,08,25,17,08,30.20
2016,08,25,17,09,30.30
2016,08,25,17,10,30.40
2016,08,25,17,11,30.50
2016,08,25,17,12,30.60
2016,08,25,17,13,30.70
2016,08,25,17,14,30.70
2016,08,25,17,15,30.80
2016,08,25,17,16,30.80
2016,08,25,17,17,30.90
2016,08,25,17,18,30.90
2016,08,25,17,19,30.90